This is the latest recevied weather packets stored in our database for station/object DB5WY-13. If no packets are shown the sender has not sent any weather packets the latest 10 day(s).
| Time | Temp. | Humidity | Pressure | Rain* | Wind** | Luminosity | Snow |
|---|---|---|---|---|---|---|---|
| 1777758608 | 11.67° C | 68% | 1017.8 hPa | 0 mm | - | - | - |
| 1777758008 | 11.67° C | 68% | 1017.7 hPa | 7.62 mm | - | - | - |
| 1777757408 | 12.22° C | 67% | 1017.8 hPa | 7.62 mm | - | - | - |
| 1777756809 | 12.22° C | 66% | 1017.8 hPa | 8.13 mm | - | - | - |
| 1777756209 | 12.22° C | 65% | 1018.1 hPa | 8.13 mm | - | - | - |
| 1777755609 | 12.78° C | 65% | 1018.1 hPa | 9.65 mm | - | - | - |
| 1777755009 | 12.78° C | 65% | 1018.1 hPa | 143.26 mm | - | - | - |
| 1777754409 | 12.78° C | 64% | 1018.1 hPa | 135.64 mm | - | - | - |
| 1777753809 | 13.33° C | 64% | 1018.1 hPa | 135.64 mm | - | - | - |
| 1777753209 | 13.33° C | 62% | 1018.1 hPa | 135.13 mm | - | - | - |
| 1777752609 | 13.33° C | 61% | 1018.2 hPa | 135.13 mm | - | - | - |
| 1777752009 | 13.89° C | 60% | 1018.2 hPa | 16 mm | - | - | - |
| 1777751409 | 14.44° C | 58% | 1018 hPa | 0 mm | - | - | - |
| 1777750809 | 14.44° C | 57% | 1018.1 hPa | 0 mm | - | - | - |
| 1777750209 | 15° C | 56% | 1018.1 hPa | 0 mm | - | - | - |
| 1777749609 | 15.56° C | 56% | 1018.2 hPa | 0 mm | - | - | - |
| 1777749009 | 16.11° C | 55% | 1018.2 hPa | 0 mm | - | - | - |
| 1777748409 | 16.67° C | 54% | 1018.2 hPa | 0 mm | - | - | - |
| 1777747809 | 17.22° C | 53% | 1018.1 hPa | 0 mm | - | - | - |
| 1777747209 | 17.22° C | 52% | 1018.1 hPa | 0 mm | - | - | - |
| 1777746609 | 17.78° C | 51% | 1018.1 hPa | 0 mm | - | - | - |
| 1777746009 | 18.33° C | 51% | 1018 hPa | 0 mm | - | - | - |
| 1777745409 | 18.33° C | 50% | 1018.1 hPa | 0 mm | - | - | - |
| 1777744809 | 18.89° C | 49% | 1018.1 hPa | 0 mm | - | - | - |
| 1777744209 | 18.89° C | 48% | 1018.3 hPa | 0 mm | - | - | - |
* Rain latest hour (hover to see other rain measurements)
** Current wind speed in m/s (hover to see current wind gust speed)